| time (UTC) | temp F | wind direction | speed knots | gust knots | rain 1hr in | rain 24hr in | rain mn in | humidity % | barometer mb |
| 20260507112038 | 58 | 0 | 0.0 | 0.9 | 0.00 | 0.00 | 0.00 | 86 | 1016.5 |
| 20260507111552 | 58 | 109 | 0.0 | 0.9 | 0.00 | 0.00 | 0.00 | 86 | 1016.4 |
| 20260507111038 | 58 | 0 | 0.0 | 0.9 | 0.00 | 0.00 | 0.00 | 85 | 1016.5 |
| 20260507110539 | 59 | 0 | 0.0 | 0.9 | 0.00 | 0.00 | 0.00 | 85 | 1016.6 |
| 20260507110051 | 59 | 109 | 0.0 | 0.9 | 0.00 | 0.00 | 0.00 | 85 | 1016.6 |
| 20260507105538 | 59 | 109 | 0.0 | 1.7 | 0.00 | 0.00 | 0.00 | 85 | 1016.7 |
| 20260507105038 | 59 | 109 | 0.9 | 1.7 | 0.00 | 0.00 | 0.00 | 85 | 1016.6 |
| 20260507104547 | 59 | 109 | 0.0 | 1.7 | 0.00 | 0.00 | 0.00 | 85 | 1016.9 |
| 20260507104039 | 59 | 109 | 0.9 | 1.7 | 0.00 | 0.00 | 0.00 | 85 | 1017.0 |
| 20260507103539 | 59 | 109 | 0.0 | 0.9 | 0.00 | 0.00 | 0.00 | 85 | 1017.0 |
| 20260507103046 | 59 | 0 | 0.0 | 0.9 | 0.00 | 0.00 | 0.00 | 85 | 1017.2 |
| 20260507102538 | 59 | 109 | 0.0 | 1.7 | 0.00 | 0.00 | 0.00 | 85 | 1017.1 |
| 20260507102038 | 60 | 109 | 0.0 | 1.7 | 0.00 | 0.00 | 0.00 | 85 | 1017.3 |
| 20260507101547 | 60 | 108 | 1.7 | 1.7 | 0.00 | 0.00 | 0.00 | 85 | 1017.2 |
| 20260507101041 | 59 | 109 | 0.9 | 1.7 | 0.00 | 0.00 | 0.00 | 85 | 1017.3 |
| 20260507100538 | 59 | 109 | 0.0 | 1.7 | 0.00 | 0.00 | 0.00 | 85 | 1017.4 |
| 20260507100043 | 59 | 0 | 0.0 | 0.0 | 0.00 | 0.00 | 0.00 | 85 | 1017.4 |
| 20260507095539 | 59 | 0 | 0.0 | 1.7 | 0.00 | 0.00 | 0.00 | 85 | 1017.6 |
| 20260507095039 | 59 | 0 | 0.0 | 1.7 | 0.00 | 0.00 | 0.00 | 85 | 1017.6 |
| 20260507094553 | 59 | 109 | 1.7 | 1.7 | 0.00 | 0.00 | 0.00 | 85 | 1017.6 |
| 20260507094038 | 59 | 107 | 1.7 | 1.7 | 0.00 | 0.00 | 0.00 | 85 | 1017.6 |
| 20260507093538 | 59 | 106 | 1.7 | 1.7 | 0.00 | 0.00 | 0.00 | 84 | 1017.5 |
| 20260507093051 | 60 | 106 | 0.9 | 1.7 | 0.00 | 0.00 | 0.00 | 83 | 1017.4 |
| 20260507092539 | 60 | 0 | 0.0 | 0.0 | 0.00 | 0.00 | 0.00 | 82 | 1017.5 |
| 20260507092041 | 60 | 0 | 0.0 | 0.0 | 0.00 | 0.00 | 0.00 | 81 | 1017.5 |
| 20260507091545 | 60 | 0 | 0.0 | 0.0 | 0.00 | 0.00 | 0.00 | 80 | 1017.5 |
| 20260507091038 | 61 | 0 | 0.0 | 0.0 | 0.00 | 0.00 | 0.00 | 80 | 1017.5 |
| 20260507090538 | 61 | 0 | 0.0 | 0.0 | 0.00 | 0.00 | 0.00 | 80 | 1017.5 |
| 20260507090051 | 61 | 0 | 0.0 | 0.0 | 0.00 | 0.00 | 0.00 | 80 | 1017.5 |
| 20260507085540 | 61 | 0 | 0.0 | 0.0 | 0.00 | 0.00 | 0.00 | 80 | 1017.6 |
| 20260507085039 | 61 | 0 | 0.0 | 0.0 | 0.00 | 0.00 | 0.00 | 80 | 1017.6 |
| 20260507084553 | 61 | 0 | 0.0 | 0.0 | 0.00 | 0.00 | 0.00 | 80 | 1017.7 |
| 20260507084036 | 61 | 0 | 0.0 | 0.0 | 0.00 | 0.00 | 0.00 | 80 | 1017.6 |
| 20260507083539 | 61 | 0 | 0.0 | 0.0 | 0.00 | 0.00 | 0.00 | 79 | 1017.7 |
| 20260507083050 | 61 | 0 | 0.0 | 0.0 | 0.00 | 0.00 | 0.00 | 79 | 1017.7 |
| 20260507082543 | 61 | 0 | 0.0 | 0.0 | 0.00 | 0.00 | 0.00 | 79 | 1017.7 |
| 20260507082039 | 61 | 0 | 0.0 | 0.0 | 0.00 | 0.00 | 0.00 | 80 | 1017.8 |
| 20260507081547 | 61 | 0 | 0.0 | 0.0 | 0.00 | 0.00 | 0.00 | 80 | 1017.7 |
| 20260507081040 | 61 | 0 | 0.0 | 0.0 | 0.00 | 0.00 | 0.00 | 80 | 1017.8 |
| 20260507080539 | 60 | 0 | 0.0 | 0.0 | 0.00 | 0.00 | 0.00 | 80 | 1017.9 |
| 20260507080116 | 61 | 0 | 0.0 | 0.0 | 0.00 | 0.00 | 0.00 | 79 | 1017.8 |
| 20260507075538 | 61 | 0 | 0.0 | 0.0 | 0.00 | 0.00 | 0.00 | 79 | 1017.7 |
| 20260507075038 | 61 | 0 | 0.0 | 0.0 | 0.00 | 0.00 | 0.00 | 78 | 1017.8 |
| 20260507074558 | 61 | 0 | 0.0 | 0.0 | 0.00 | 0.00 | 0.00 | 78 | 1017.7 |
| 20260507074039 | 62 | 0 | 0.0 | 0.9 | 0.00 | 0.00 | 0.00 | 77 | 1017.7 |
| 20260507073539 | 62 | 0 | 0.0 | 0.9 | 0.00 | 0.00 | 0.00 | 76 | 1017.6 |
| 20260507073058 | 62 | 115 | 0.0 | 0.9 | 0.00 | 0.00 | 0.00 | 76 | 1017.6 |
| 20260507072539 | 62 | 115 | 0.0 | 0.9 | 0.00 | 0.00 | 0.00 | 77 | 1017.6 |
| 20260507072037 | 62 | 115 | 0.0 | 0.9 | 0.00 | 0.00 | 0.00 | 78 | 1017.6 |
| 20260507071557 | 62 | 115 | 0.0 | 0.9 | 0.00 | 0.00 | 0.00 | 78 | 1017.7 |
| 20260507071041 | 62 | 129 | 0.0 | 0.9 | 0.00 | 0.00 | 0.00 | 78 | 1017.7 |
| 20260507070539 | 61 | 144 | 0.0 | 0.0 | 0.00 | 0.00 | 0.00 | 78 | 1017.7 |
| 20260507070049 | 61 | 0 | 0.0 | 0.0 | 0.00 | 0.00 | 0.00 | 78 | 1017.7 |
| 20260507065538 | 61 | 0 | 0.0 | 0.0 | 0.00 | 0.00 | 0.00 | 80 | 1017.7 |
| 20260507065038 | 61 | 0 | 0.0 | 0.0 | 0.00 | 0.00 | 0.00 | 80 | 1017.7 |
| 20260507064555 | 61 | 0 | 0.0 | 0.0 | 0.00 | 0.00 | 0.00 | 80 | 1017.8 |
| 20260507064038 | 61 | 0 | 0.0 | 0.0 | 0.00 | 0.00 | 0.00 | 80 | 1017.9 |
| 20260507063539 | 61 | 0 | 0.0 | 0.0 | 0.00 | 0.00 | 0.00 | 80 | 1017.9 |
| 20260507063046 | 61 | 0 | 0.0 | 0.0 | 0.00 | 0.00 | 0.00 | 80 | 1018.0 |
| 20260507062536 | 61 | 0 | 0.0 | 0.0 | 0.00 | 0.00 | 0.00 | 80 | 1018.0 |
| 20260507062039 | 61 | 0 | 0.0 | 0.0 | 0.00 | 0.00 | 0.00 | 80 | 1017.9 |
| 20260507061549 | 61 | 0 | 0.0 | 0.0 | 0.00 | 0.00 | 0.00 | 80 | 1017.9 |
| 20260507061036 | 61 | 0 | 0.0 | 0.0 | 0.00 | 0.00 | 0.00 | 80 | 1017.8 |
| 20260507060541 | 61 | 0 | 0.0 | 0.0 | 0.00 | 0.00 | 0.00 | 80 | 1017.8 |
| 20260507060050 | 61 | 0 | 0.0 | 0.0 | 0.00 | 0.00 | 0.00 | 79 | 1017.9 |
| 20260507055540 | 61 | 0 | 0.0 | 0.0 | 0.00 | 0.00 | 0.00 | 79 | 1017.9 |
| 20260507055038 | 62 | 0 | 0.0 | 0.0 | 0.00 | 0.00 | 0.00 | 79 | 1018.0 |
| 20260507054551 | 62 | 0 | 0.0 | 0.0 | 0.00 | 0.00 | 0.00 | 79 | 1018.0 |
| 20260507054040 | 62 | 0 | 0.0 | 0.9 | 0.00 | 0.00 | 0.00 | 79 | 1018.0 |
| 20260507053539 | 62 | 0 | 0.0 | 0.9 | 0.00 | 0.00 | 0.00 | 78 | 1017.9 |
| 20260507053048 | 62 | 153 | 0.0 | 0.9 | 0.00 | 0.00 | 0.00 | 77 | 1017.9 |
| 20260507052538 | 62 | 0 | 0.0 | 0.0 | 0.00 | 0.00 | 0.00 | 76 | 1018.0 |
| 20260507052039 | 63 | 153 | 0.0 | 0.9 | 0.00 | 0.00 | 0.00 | 76 | 1018.0 |
| 20260507051549 | 63 | 0 | 0.0 | 0.9 | 0.00 | 0.00 | 0.00 | 74 | 1017.9 |
| 20260507051038 | 64 | 153 | 0.0 | 0.9 | 0.00 | 0.00 | 0.00 | 73 | 1017.9 |
| 20260507050536 | 64 | 159 | 0.0 | 0.0 | 0.00 | 0.00 | 0.00 | 72 | 1017.8 |
| 20260507050044 | 65 | 0 | 0.0 | 0.0 | 0.00 | 0.00 | 0.00 | 70 | 1017.9 |
| 20260507045539 | 65 | 0 | 0.0 | 0.0 | 0.00 | 0.00 | 0.00 | 69 | 1017.8 |
| 20260507045039 | 66 | 0 | 0.0 | 0.0 | 0.00 | 0.00 | 0.00 | 68 | 1017.9 |
| 20260507044551 | 66 | 0 | 0.0 | 0.0 | 0.00 | 0.00 | 0.00 | 67 | 1018.0 |
| 20260507044038 | 67 | 0 | 0.0 | 0.0 | 0.00 | 0.00 | 0.00 | 66 | 1018.0 |
| 20260507043539 | 67 | 0 | 0.0 | 0.0 | 0.00 | 0.00 | 0.00 | 65 | 1018.0 |
| 20260507043048 | 68 | 0 | 0.0 | 0.9 | 0.00 | 0.00 | 0.00 | 64 | 1018.0 |
| 20260507042539 | 69 | 0 | 0.0 | 1.7 | 0.00 | 0.00 | 0.00 | 63 | 1018.0 |
| 20260507042038 | 69 | 0 | 0.0 | 5.2 | 0.00 | 0.00 | 0.00 | 62 | 1018.2 |
| 20260507041546 | 70 | 265 | 0.9 | 5.2 | 0.00 | 0.00 | 0.00 | 61 | 1018.1 |
| 20260507041059 | 70 | 63 | 0.0 | 3.5 | 0.00 | 0.00 | 0.00 | 60 | 1018.1 |
| 20260507040539 | 71 | 261 | 0.9 | 3.5 | 0.00 | 0.00 | 0.00 | 60 | 1018.2 |
| 20260507040058 | 71 | 68 | 0.0 | 2.6 | 0.00 | 0.00 | 0.00 | 60 | 1018.4 |
| 20260507035539 | 70 | 44 | 0.0 | 2.6 | 0.00 | 0.00 | 0.00 | 60 | 1018.3 |
| 20260507035038 | 70 | 0 | 0.0 | 6.1 | 0.00 | 0.00 | 0.00 | 60 | 1018.4 |
| 20260507034556 | 70 | 53 | 1.7 | 11.3 | 0.00 | 0.00 | 0.00 | 60 | 1018.5 |
| 20260507034035 | 70 | 292 | 2.6 | 11.3 | 0.00 | 0.00 | 0.00 | 59 | 1018.5 |
| 20260507033536 | 70 | 242 | 1.7 | 11.3 | 0.00 | 0.00 | 0.00 | 58 | 1018.4 |
| 20260507033048 | 71 | 232 | 3.5 | 11.3 | 0.00 | 0.00 | 0.00 | 56 | 1018.5 |
| 20260507032539 | 72 | 280 | 1.7 | 10.4 | 0.00 | 0.00 | 0.00 | 56 | 1018.7 |
| 20260507032036 | 73 | 346 | 2.6 | 10.4 | 0.00 | 0.00 | 0.00 | 55 | 1018.7 |
| 20260507031545 | 73 | 61 | 1.7 | 9.6 | 0.00 | 0.00 | 0.00 | 55 | 1018.7 |
| 20260507031036 | 72 | 261 | 1.7 | 7.8 | 0.00 | 0.00 | 0.00 | 55 | 1018.7 |
| 20260507030537 | 72 | 71 | 1.7 | 13.0 | 0.00 | 0.00 | 0.00 | 57 | 1018.7 |
| 20260507030053 | 71 | 306 | 2.6 | 13.0 | 0.00 | 0.00 | 0.00 | 56 | 1018.7 |
| 20260507025538 | 71 | 26 | 4.3 | 12.2 | 0.00 | 0.00 | 0.00 | 57 | 1018.8 |
| 20260507025040 | 71 | 228 | 4.3 | 12.2 | 0.00 | 0.00 | 0.00 | 58 | 1018.9 |
| 20260507024545 | 70 | 269 | 2.6 | 12.2 | 0.00 | 0.00 | 0.00 | 59 | 1019.0 |
| 20260507024040 | 70 | 185 | 3.5 | 12.2 | 0.00 | 0.00 | 0.00 | 58 | 1019.0 |
| 20260507023539 | 71 | 333 | 2.6 | 8.7 | 0.00 | 0.00 | 0.00 | 58 | 1019.1 |
| 20260507023047 | 71 | 52 | 1.7 | 7.0 | 0.00 | 0.00 | 0.00 | 57 | 1018.9 |
| 20260507022539 | 71 | 300 | 2.6 | 7.0 | 0.00 | 0.00 | 0.00 | 58 | 1019.0 |
| 20260507022038 | 71 | 336 | 2.6 | 7.8 | 0.00 | 0.00 | 0.00 | 58 | 1018.9 |
| 20260507021550 | 71 | 63 | 3.5 | 7.8 | 0.00 | 0.00 | 0.00 | 58 | 1018.9 |
| 20260507021037 | 71 | 223 | 1.7 | 7.0 | 0.00 | 0.00 | 0.00 | 57 | 1018.9 |
| 20260507020536 | 71 | 76 | 1.7 | 7.0 | 0.00 | 0.00 | 0.00 | 58 | 1019.0 |
| 20260507020057 | 71 | 248 | 1.7 | 7.0 | 0.00 | 0.00 | 0.00 | 58 | 1019.3 |
| 20260507015538 | 71 | 40 | 1.7 | 8.7 | 0.00 | 0.00 | 0.00 | 56 | 1019.2 |
| 20260507015038 | 71 | 255 | 1.7 | 9.6 | 0.00 | 0.00 | 0.00 | 57 | 1019.4 |
| 20260507014557 | 71 | 72 | 2.6 | 10.4 | 0.00 | 0.00 | 0.00 | 57 | 1019.4 |
| 20260507014036 | 71 | 320 | 2.6 | 13.9 | 0.00 | 0.00 | 0.00 | 55 | 1019.6 |
| 20260507013542 | 72 | 67 | 4.3 | 13.9 | 0.00 | 0.00 | 0.00 | 55 | 1019.6 |
| 20260507013045 | 72 | 195 | 2.6 | 13.0 | 0.00 | 0.00 | 0.00 | 55 | 1019.8 |
| 20260507012538 | 72 | 77 | 2.6 | 13.0 | 0.00 | 0.00 | 0.00 | 56 | 1019.8 |
| 20260507012038 | 72 | 54 | 2.6 | 13.0 | 0.00 | 0.00 | 0.00 | 56 | 1019.6 |
| 20260507011601 | 72 | 60 | 4.3 | 11.3 | 0.00 | 0.00 | 0.00 | 55 | 1019.8 |
| 20260507011039 | 72 | 300 | 2.6 | 8.7 | 0.00 | 0.00 | 0.00 | 55 | 1019.7 |
| 20260507010539 | 72 | 53 | 1.7 | 9.6 | 0.00 | 0.00 | 0.00 | 58 | 1019.8 |
| 20260507010048 | 71 | 242 | 2.6 | 12.2 | 0.00 | 0.00 | 0.00 | 60 | 1019.9 |
| 20260507005539 | 71 | 309 | 3.5 | 13.0 | 0.00 | 0.00 | 0.00 | 60 | 1019.9 |
| 20260507005041 | 71 | 269 | 4.3 | 13.9 | 0.00 | 0.00 | 0.00 | 58 | 1019.9 |
| 20260507004550 | 71 | 248 | 7.0 | 13.9 | 0.00 | 0.00 | 0.00 | 60 | 1019.9 |
| 20260507004039 | 71 | 254 | 4.3 | 11.3 | 0.00 | 0.00 | 0.00 | 61 | 1019.9 |
| 20260507003539 | 70 | 32 | 2.6 | 11.3 | 0.00 | 0.00 | 0.00 | 65 | 1020.0 |
| 20260507003047 | 70 | 277 | 6.1 | 11.3 | 0.00 | 0.00 | 0.00 | 63 | 1020.1 |
| 20260507002538 | 70 | 286 | 2.6 | 13.0 | 0.00 | 0.00 | 0.00 | 64 | 1020.3 |
| 20260507002039 | 70 | 248 | 3.5 | 13.0 | 0.00 | 0.00 | 0.00 | 66 | 1020.5 |
| 20260507001555 | 70 | 304 | 2.6 | 8.7 | 0.00 | 0.00 | 0.00 | 67 | 1020.6 |
| 20260507001038 | 69 | 128 | 2.6 | 7.0 | 0.00 | 0.00 | 0.00 | 67 | 1020.8 |
| 20260507000541 | 69 | 46 | 1.7 | 8.7 | 0.00 | 0.00 | 0.00 | 66 | 1020.8 |
| 20260507000051 | 69 | 265 | 2.6 | 9.6 | 0.00 | 0.00 | 0.00 | 67 | 1020.8 |
| 20260506235540 | 69 | 52 | 4.3 | 9.6 | 0.00 | 0.00 | 0.00 | 67 | 1020.9 |
| 20260506235038 | 69 | 325 | 3.5 | 9.6 | 0.00 | 0.00 | 0.00 | 66 | 1020.9 |
| 20260506234548 | 69 | 295 | 4.3 | 7.8 | 0.00 | 0.00 | 0.00 | 68 | 1020.9 |
| 20260506234039 | 70 | 47 | 2.6 | 7.0 | 0.00 | 0.00 | 0.00 | 67 | 1021.0 |
| 20260506233539 | 70 | 244 | 1.7 | 7.0 | 0.00 | 0.00 | 0.00 | 69 | 1021.0 |
| 20260506233049 | 70 | 46 | 1.7 | 5.2 | 0.00 | 0.00 | 0.00 | 67 | 1021.1 |
| 20260506232538 | 70 | 194 | 0.9 | 5.2 | 0.00 | 0.00 | 0.00 | 70 | 1021.2 |
| 20260506232038 | 69 | 184 | 0.9 | 5.2 | 0.00 | 0.00 | 0.00 | 70 | 1021.2 |
| 20260506231544 | 69 | 329 | 1.7 | 5.2 | 0.00 | 0.00 | 0.00 | 71 | 1021.3 |
| 20260506231039 | 68 | 63 | 1.7 | 6.1 | 0.00 | 0.00 | 0.00 | 72 | 1021.3 |
| 20260506230541 | 68 | 49 | 1.7 | 7.0 | 0.00 | 0.00 | 0.00 | 72 | 1021.5 |
| 20260506230052 | 67 | 53 | 2.6 | 7.0 | 0.00 | 0.00 | 0.00 | 73 | 1021.6 |
| 20260506225540 | 67 | 26 | 1.7 | 7.0 | 0.00 | 0.00 | 0.00 | 74 | 1021.6 |
| 20260506225038 | 66 | 263 | 1.7 | 5.2 | 0.00 | 0.00 | 0.00 | 76 | 1021.7 |
| 20260506224545 | 65 | 88 | 1.7 | 5.2 | 0.00 | 0.00 | 0.00 | 79 | 1021.8 |
| 20260506224038 | 65 | 217 | 2.6 | 5.2 | 0.00 | 0.00 | 0.00 | 82 | 1021.8 |
| 20260506223539 | 64 | 69 | 0.9 | 2.6 | 0.00 | 0.00 | 0.00 | 82 | 1021.8 |
| 20260506223039 | 63 | 101 | 0.9 | 2.6 | 0.00 | 0.00 | 0.00 | 82 | 1021.9 |
| 20260506222539 | 62 | 0 | 0.0 | 1.7 | 0.00 | 0.00 | 0.00 | 83 | 1021.9 |
| 20260506222039 | 62 | 0 | 0.0 | 1.7 | 0.00 | 0.00 | 0.00 | 84 | 1021.9 |
| 20260506221542 | 61 | 0 | 0.0 | 2.6 | 0.00 | 0.00 | 0.00 | 84 | 1021.9 |
| 20260506221039 | 60 | 111 | 0.9 | 2.6 | 0.00 | 0.00 | 0.00 | 85 | 1021.8 |
| 20260506220536 | 60 | 0 | 0.9 | 2.6 | 0.00 | 0.00 | 0.00 | 85 | 1022.0 |
| 20260506220106 | 59 | 94 | 0.9 | 2.6 | 0.00 | 0.00 | 0.00 | 85 | 1022.0 |
| 20260506215536 | 59 | 94 | 0.0 | 0.9 | 0.00 | 0.00 | 0.00 | 85 | 1022.2 |
| 20260506215038 | 58 | 94 | 0.0 | 1.7 | 0.00 | 0.00 | 0.00 | 86 | 1022.2 |
| 20260506214548 | 58 | 0 | 0.0 | 1.7 | 0.00 | 0.00 | 0.00 | 86 | 1022.2 |
| 20260506214036 | 58 | 94 | 0.9 | 1.7 | 0.00 | 0.00 | 0.00 | 86 | 1022.3 |
| 20260506213538 | 57 | 94 | 0.0 | 0.9 | 0.00 | 0.00 | 0.00 | 86 | 1022.4 |
| 20260506213050 | 57 | 0 | 0.0 | 0.9 | 0.00 | 0.00 | 0.00 | 86 | 1022.4 |
| 20260506212538 | 57 | 0 | 0.0 | 0.9 | 0.00 | 0.00 | 0.00 | 86 | 1022.4 |
| 20260506212041 | 57 | 0 | 0.0 | 3.5 | 0.00 | 0.00 | 0.00 | 88 | 1022.4 |
| 20260506211544 | 57 | 94 | 0.9 | 3.5 | 0.00 | 0.00 | 0.00 | 88 | 1022.5 |
| 20260506211039 | 57 | 104 | 2.6 | 3.5 | 0.00 | 0.00 | 0.00 | 89 | 1022.5 |
| 20260506210542 | 56 | 109 | 1.7 | 3.5 | 0.00 | 0.00 | 0.00 | 90 | 1022.5 |
| 20260506210045 | 56 | 107 | 1.7 | 3.5 | 0.00 | 0.00 | 0.00 | 90 | 1022.4 |
| 20260506205539 | 56 | 94 | 0.9 | 3.5 | 0.00 | 0.00 | 0.00 | 90 | 1022.5 |
| 20260506205041 | 56 | 94 | 0.9 | 3.5 | 0.00 | 0.00 | 0.00 | 91 | 1022.6 |
| 20260506204552 | 55 | 88 | 0.9 | 3.5 | 0.00 | 0.00 | 0.00 | 91 | 1022.7 |
| 20260506204038 | 56 | 88 | 0.0 | 1.7 | 0.00 | 0.00 | 0.00 | 92 | 1022.7 |
| 20260506203540 | 55 | 0 | 0.0 | 1.7 | 0.00 | 0.00 | 0.00 | 93 | 1022.9 |
| 20260506203138 | 55 | 0 | 0.9 | 3.5 | 0.00 | 0.00 | 0.00 | 94 | 1022.8 |
| 20260506202538 | 54 | 108 | 0.9 | 3.5 | 0.00 | 0.00 | 0.00 | 94 | 1022.8 |
| 20260506202040 | 54 | 88 | 1.7 | 3.5 | 0.00 | 0.00 | 0.00 | 95 | 1022.8 |
| 20260506201549 | 53 | 90 | 0.0 | 3.5 | 0.00 | 0.00 | 0.00 | 97 | 1022.8 |
| 20260506201039 | 51 | 84 | 0.9 | 3.5 | 0.00 | 0.00 | 0.00 | 97 | 1022.7 |
| 20260506200539 | 50 | 91 | 0.9 | 2.6 | 0.00 | 0.00 | 0.00 | 96 | 1022.8 |
| 20260506200052 | 50 | 94 | 0.9 | 1.7 | 0.00 | 0.00 | 0.00 | 96 | 1022.9 |
| 20260506195539 | 49 | 0 | 0.0 | 0.9 | 0.00 | 0.00 | 0.00 | 96 | 1022.9 |
| 20260506195039 | 49 | 0 | 0.0 | 0.9 | 0.00 | 0.00 | 0.00 | 96 | 1022.9 |
| 20260506194549 | 49 | 0 | 0.0 | 0.9 | 0.00 | 0.00 | 0.00 | 96 | 1022.8 |
| 20260506194040 | 49 | 94 | 0.0 | 0.9 | 0.00 | 0.00 | 0.00 | 96 | 1022.9 |
| 20260506193538 | 49 | 94 | 0.0 | 0.9 | 0.00 | 0.00 | 0.00 | 96 | 1023.1 |
| 20260506193049 | 49 | 94 | 0.9 | 0.9 | 0.00 | 0.00 | 0.00 | 96 | 1022.8 |
| 20260506192538 | 49 | 94 | 0.9 | 0.9 | 0.00 | 0.00 | 0.00 | 96 | 1022.9 |
| 20260506192038 | 49 | 0 | 0.0 | 0.9 | 0.00 | 0.00 | 0.00 | 96 | 1022.9 |
| 20260506191552 | 49 | 0 | 0.0 | 0.0 | 0.00 | 0.00 | 0.00 | 96 | 1022.9 |
| 20260506191039 | 49 | 0 | 0.0 | 0.0 | 0.00 | 0.00 | 0.00 | 96 | 1022.8 |
| 20260506190540 | 49 | 0 | 0.0 | 0.9 | 0.00 | 0.00 | 0.00 | 96 | 1022.9 |
| 20260506190049 | 49 | 0 | 0.0 | 0.9 | 0.00 | 0.00 | 0.00 | 97 | 1022.8 |
| 20260506185540 | 49 | 0 | 0.0 | 0.9 | 0.00 | 0.00 | 0.00 | 96 | 1022.7 |
| 20260506185039 | 49 | 0 | 0.0 | 0.9 | 0.00 | 0.00 | 0.00 | 96 | 1022.8 |
| 20260506184552 | 49 | 0 | 0.0 | 0.9 | 0.00 | 0.00 | 0.00 | 96 | 1022.8 |
| 20260506184040 | 49 | 0 | 0.0 | 0.9 | 0.00 | 0.00 | 0.00 | 96 | 1022.7 |
| 20260506183538 | 49 | 0 | 0.0 | 0.9 | 0.00 | 0.00 | 0.00 | 96 | 1022.8 |
| 20260506183049 | 49 | 94 | 0.0 | 0.9 | 0.00 | 0.00 | 0.00 | 96 | 1022.6 |
| 20260506182538 | 49 | 0 | 0.0 | 0.9 | 0.00 | 0.00 | 0.00 | 95 | 1022.8 |
| 20260506182042 | 49 | 0 | 0.0 | 0.9 | 0.00 | 0.00 | 0.00 | 95 | 1022.8 |
| 20260506181547 | 50 | 95 | 0.0 | 0.9 | 0.00 | 0.00 | 0.00 | 96 | 1022.7 |
| 20260506181039 | 50 | 94 | 0.0 | 1.7 | 0.00 | 0.00 | 0.00 | 96 | 1022.9 |
| 20260506180540 | 50 | 0 | 0.9 | 1.7 | 0.00 | 0.00 | 0.00 | 96 | 1022.9 |
| 20260506180053 | 50 | 94 | 0.0 | 1.7 | 0.00 | 0.00 | 0.00 | 96 | 1022.9 |
| 20260506175539 | 50 | 94 | 0.0 | 3.5 | 0.00 | 0.00 | 0.00 | 96 | 1023.1 |
| 20260506175043 | 49 | 95 | 0.9 | 3.5 | 0.00 | 0.00 | 0.00 | 95 | 1023.1 |
| 20260506174605 | 50 | 79 | 1.7 | 3.5 | 0.00 | 0.00 | 0.00 | 95 | 1023.2 |
| 20260506174040 | 50 | 102 | 0.0 | 0.9 | 0.00 | 0.00 | 0.00 | 95 | 1023.1 |
| 20260506173539 | 51 | 102 | 0.0 | 0.9 | 0.00 | 0.00 | 0.00 | 96 | 1023.2 |
| 20260506173055 | 50 | 0 | 0.0 | 0.0 | 0.00 | 0.00 | 0.00 | 96 | 1023.3 |
| 20260506172538 | 51 | 0 | 0.0 | 0.0 | 0.00 | 0.00 | 0.00 | 96 | 1023.3 |
| 20260506172040 | 51 | 0 | 0.0 | 0.0 | 0.00 | 0.00 | 0.00 | 96 | 1023.4 |
| 20260506171604 | 50 | 0 | 0.0 | 0.9 | 0.00 | 0.00 | 0.00 | 96 | 1023.3 |
| 20260506171040 | 51 | 0 | 0.0 | 0.9 | 0.00 | 0.00 | 0.00 | 95 | 1023.5 |
| 20260506170539 | 51 | 102 | 0.0 | 0.9 | 0.00 | 0.00 | 0.00 | 95 | 1023.4 |
| 20260506170048 | 51 | 102 | 0.0 | 0.9 | 0.00 | 0.00 | 0.00 | 95 | 1023.5 |
| 20260506165539 | 51 | 102 | 0.0 | 0.9 | 0.00 | 0.00 | 0.00 | 95 | 1023.6 |
| 20260506165040 | 51 | 0 | 0.0 | 0.9 | 0.00 | 0.00 | 0.00 | 95 | 1023.7 |
| 20260506164558 | 52 | 102 | 0.0 | 1.7 | 0.00 | 0.00 | 0.00 | 95 | 1023.7 |
| 20260506164039 | 52 | 0 | 0.9 | 1.7 | 0.00 | 0.00 | 0.00 | 96 | 1023.7 |
| 20260506163539 | 52 | 102 | 0.0 | 0.9 | 0.00 | 0.00 | 0.00 | 96 | 1023.7 |
| 20260506163121 | 52 | 0 | 0.0 | 0.9 | 0.00 | 0.00 | 0.00 | 96 | 1023.8 |
| 20260506162539 | 52 | 0 | 0.0 | 0.9 | 0.00 | 0.00 | 0.00 | 96 | 1023.9 |
| 20260506162040 | 52 | 0 | 0.0 | 0.9 | 0.00 | 0.00 | 0.00 | 96 | 1024.0 |
| 20260506161554 | 52 | 0 | 0.0 | 0.9 | 0.00 | 0.00 | 0.00 | 96 | 1024.1 |
| 20260506161044 | 52 | 0 | 0.0 | 0.0 | 0.00 | 0.00 | 0.00 | 95 | 1024.0 |
| 20260506160539 | 52 | 0 | 0.0 | 0.0 | 0.00 | 0.00 | 0.00 | 96 | 1024.0 |
| 20260506160056 | 52 | 0 | 0.0 | 0.0 | 0.00 | 0.00 | 0.00 | 95 | 1024.1 |
| 20260506155538 | 52 | 0 | 0.0 | 0.0 | 0.00 | 0.00 | 0.00 | 95 | 1024.2 |
| 20260506155038 | 52 | 0 | 0.0 | 0.9 | 0.00 | 0.00 | 0.00 | 95 | 1024.1 |
| 20260506154552 | 52 | 0 | 0.0 | 0.9 | 0.00 | 0.00 | 0.00 | 95 | 1024.1 |
| 20260506154131 | 52 | 0 | 0.0 | 1.7 | 0.00 | 0.00 | 0.00 | 95 | 1024.1 |
| 20260506153541 | 52 | 92 | 0.0 | 1.7 | 0.00 | 0.00 | 0.00 | 96 | 1024.1 |
| 20260506153055 | 52 | 0 | 0.0 | 0.9 | 0.00 | 0.00 | 0.00 | 96 | 1024.4 |
| 20260506152539 | 52 | 82 | 0.0 | 0.0 | 0.00 | 0.00 | 0.00 | 95 | 1024.3 |
| 20260506152040 | 52 | 0 | 0.0 | 0.0 | 0.00 | 0.00 | 0.00 | 95 | 1024.3 |
| 20260506151550 | 53 | 0 | 0.0 | 0.0 | 0.00 | 0.00 | 0.00 | 95 | 1024.3 |
| 20260506151039 | 53 | 0 | 0.0 | 0.9 | 0.00 | 0.00 | 0.00 | 95 | 1024.5 |
| 20260506150539 | 53 | 0 | 0.0 | 0.9 | 0.00 | 0.00 | 0.00 | 95 | 1024.6 |
| 20260506150048 | 53 | 0 | 0.0 | 0.9 | 0.00 | 0.00 | 0.00 | 95 | 1024.6 |
| 20260506145539 | 53 | 0 | 0.0 | 0.0 | 0.00 | 0.00 | 0.00 | 95 | 1024.7 |
| 20260506145040 | 53 | 0 | 0.0 | 0.9 | 0.00 | 0.00 | 0.00 | 95 | 1024.9 |
| 20260506144552 | 53 | 0 | 0.0 | 0.9 | 0.00 | 0.00 | 0.00 | 95 | 1024.9 |
| 20260506144039 | 53 | 77 | 0.0 | 0.9 | 0.00 | 0.00 | 0.00 | 95 | 1024.9 |
| 20260506143540 | 53 | 0 | 0.0 | 0.0 | 0.00 | 0.00 | 0.00 | 95 | 1024.9 |
| 20260506143050 | 53 | 0 | 0.0 | 0.0 | 0.00 | 0.00 | 0.00 | 95 | 1024.9 |
| 20260506142542 | 53 | 0 | 0.0 | 0.0 | 0.00 | 0.00 | 0.00 | 95 | 1025.0 |
| 20260506142039 | 54 | 0 | 0.0 | 0.0 | 0.00 | 0.00 | 0.00 | 95 | 1025.0 |
| 20260506141554 | 54 | 0 | 0.0 | 0.0 | 0.00 | 0.00 | 0.00 | 95 | 1025.1 |
| 20260506141039 | 54 | 0 | 0.0 | 0.0 | 0.00 | 0.00 | 0.00 | 95 | 1025.2 |
| 20260506140539 | 54 | 0 | 0.0 | 0.0 | 0.00 | 0.00 | 0.00 | 95 | 1025.1 |
| 20260506140054 | 54 | 0 | 0.0 | 0.0 | 0.00 | 0.00 | 0.00 | 95 | 1025.2 |
| 20260506135539 | 54 | 0 | 0.0 | 0.0 | 0.00 | 0.00 | 0.00 | 95 | 1025.3 |
| 20260506135036 | 54 | 0 | 0.0 | 0.0 | 0.00 | 0.00 | 0.00 | 95 | 1025.2 |
| 20260506134553 | 54 | 0 | 0.0 | 0.0 | 0.00 | 0.00 | 0.00 | 95 | 1025.2 |
| 20260506134043 | 54 | 0 | 0.0 | 0.0 | 0.00 | 0.00 | 0.00 | 95 | 1025.2 |
| 20260506133539 | 54 | 77 | 0.0 | 0.9 | 0.00 | 0.00 | 0.00 | 95 | 1025.2 |
| 20260506133054 | 54 | 0 | 0.0 | 0.9 | 0.00 | 0.00 | 0.00 | 95 | 1025.3 |
| 20260506132536 | 55 | 77 | 0.0 | 0.9 | 0.00 | 0.00 | 0.00 | 95 | 1025.3 |
| 20260506132036 | 55 | 77 | 0.0 | 0.9 | 0.00 | 0.00 | 0.00 | 95 | 1025.3 |
| 20260506131548 | 55 | 0 | 0.0 | 0.0 | 0.00 | 0.00 | 0.00 | 95 | 1025.3 |
| 20260506131039 | 55 | 0 | 0.0 | 0.0 | 0.00 | 0.00 | 0.00 | 95 | 1025.3 |
| 20260506130540 | 55 | 0 | 0.0 | 0.9 | 0.00 | 0.00 | 0.00 | 95 | 1025.2 |
| 20260506130050 | 55 | 0 | 0.0 | 0.9 | 0.00 | 0.00 | 0.00 | 96 | 1025.3 |
| 20260506125540 | 55 | 0 | 0.0 | 0.0 | 0.00 | 0.00 | 0.00 | 96 | 1025.4 |
| 20260506125039 | 55 | 0 | 0.0 | 0.0 | 0.00 | 0.00 | 0.00 | 95 | 1025.2 |
| 20260506124550 | 55 | 0 | 0.0 | 0.0 | 0.00 | 0.00 | 0.00 | 95 | 1025.4 |
| 20260506124036 | 55 | 0 | 0.0 | 0.0 | 0.00 | 0.00 | 0.00 | 95 | 1025.4 |
| 20260506123536 | 55 | 0 | 0.0 | 0.0 | 0.00 | 0.00 | 0.00 | 95 | 1025.3 |
| 20260506123050 | 55 | 0 | 0.0 | 0.0 | 0.00 | 0.00 | 0.00 | 95 | 1025.4 |
| 20260506122535 | 55 | 0 | 0.0 | 0.0 | 0.00 | 0.00 | 0.00 | 95 | 1025.3 |
| 20260506122036 | 55 | 0 | 0.0 | 0.0 | 0.00 | 0.00 | 0.00 | 95 | 1025.3 |
| 20260506121604 | 55 | 0 | 0.0 | 0.0 | 0.00 | 0.00 | 0.00 | 95 | 1025.3 |
| 20260506121036 | 55 | 0 | 0.0 | 0.0 | 0.00 | 0.00 | 0.00 | 96 | 1025.4 |
| 20260506120537 | 55 | 0 | 0.0 | 0.0 | 0.00 | 0.00 | 0.00 | 96 | 1025.3 |
| 20260506120050 | 55 | 0 | 0.0 | 0.0 | 0.00 | 0.00 | 0.00 | 96 | 1025.3 |
| 20260506115540 | 55 | 0 | 0.0 | 0.0 | 0.00 | 0.00 | 0.00 | 95 | 1025.3 |
| 20260506115037 | 55 | 0 | 0.0 | 0.0 | 0.00 | 0.00 | 0.00 | 95 | 1025.3 |
| 20260506114546 | 55 | 0 | 0.0 | 0.9 | 0.00 | 0.00 | 0.00 | 95 | 1025.3 |
| 20260506114040 | 55 | 0 | 0.0 | 0.9 | 0.00 | 0.00 | 0.00 | 95 | 1025.3 |
| 20260506113539 | 55 | 0 | 0.0 | 0.9 | 0.00 | 0.00 | 0.00 | 95 | 1025.2 |
| 20260506113047 | 55 | 0 | 0.0 | 1.7 | 0.00 | 0.00 | 0.00 | 96 | 1025.3 |
| 20260506112537 | 55 | 0 | 0.0 | 1.7 | 0.00 | 0.00 | 0.00 | 96 | 1025.4 |